Flag for Norway Weather past 2 weeks in Randaberg, Norway

Now
54 °F

Light rain. Overcast.


Feels Like: 53 °F
Forecast: 50 / 56 °F
Wind: 7 mph from North

Location: Stavanger / Sola

Current Time: Oct 1, 2014 at 10:21:27 PM

Latest Report: Oct 1, 2014 at 9:00 PM


Visibility: 16 mi

Pressure: 30.20 "Hg

Humidity: 89%

Dew point: 51 °F

Location of RandabergLocation

Historic Weather in Randaberg — Graph

°F

Randaberg temperature yesterday

Maximum temperature yesterday: 61 °F (at 2:00 PM)
Minimum temperature yesterday: 50 °F (at 12:00 AM)
Average temperature yesterday: 56 °F

Past Weeks' High & Low Weather Summary

 TemperatureHumidityPressure
High70 °F (Sep 17, 2:00 PM)98% (Sep 29, 8:00 AM)30.24 "Hg (Sep 29, 8:00 AM)
Low43 °F (Sep 23, 3:00 AM)44% (Sep 17, 2:00 PM)29.67 "Hg (Sep 24, 10:00 PM)
Average56 °F77%30.01 "Hg
* Reported Sep 16 9:00 PM — Oct 1 9:00 PM, Randaberg, Weather by CustomWeather, © 2014

Note: Actual official high and low records may vary slightly from our data, if they occured in-between our weather recording intervals... More about our weather records

Advertising

Randaberg weather history for previous 24 hours

 ConditionsComfort  
Time TempWeatherWind HumidityBarometerVisibility
9:00 PM
Oct 1
54 °FLight rain. Overcast.7 mph89%30.20 "Hg16 mi
8:00 PM56 °FRain showers. Passing clouds.5 mph95%30.15 "Hg6 mi
7:00 PM57 °FRain. Overcast.6 mph95%30.13 "Hg2 mi
6:00 PM58 °FDrizzle. Overcast.7 mph94%30.10 "Hg5 mi
5:00 PM59 °FFog.7 mph92%30.11 "Hg3 mi
4:00 PM60 °FRain showers. Partly sunny.7 mph90%30.11 "Hg6 mi
3:00 PM60 °FOvercast.7 mph86%30.12 "Hg28 mi
2:00 PM60 °FLight rain. Overcast.8 mph86%30.12 "Hg17 mi
1:00 PM59 °FOvercast.8 mph84%30.13 "Hg9 mi
12:00 PM60 °FOvercast.8 mph79%30.13 "Hg31 mi
11:00 AM60 °FOvercast.8 mph73%30.13 "Hg31 mi
10:00 AM60 °FOvercast.10 mph73%30.12 "Hg31 mi
9:00 AM59 °FOvercast.9 mph72%30.13 "Hg31 mi
8:00 AM58 °FOvercast.9 mph70%30.13 "Hg31 mi
7:00 AM57 °FPassing clouds.7 mph69%30.14 "Hg31 mi
6:00 AM58 °FPassing clouds.7 mph65%30.15 "Hg31 mi
5:00 AM58 °FOvercast.7 mph62%30.16 "Hg31 mi
4:00 AM58 °FOvercast.7 mph57%30.18 "Hg31 mi
3:00 AM58 °FRefreshingly cool.7 mph54%30.19 "Hg31 mi
2:00 AM57 °FRefreshingly cool.8 mph57%30.19 "Hg31 mi
1:00 AM58 °FOvercast.7 mph57%30.21 "Hg31 mi
12:00 AM58 °FOvercast.6 mph49%30.22 "Hg31 mi
11:00 PM
Sep 30
58 °FOvercast.5 mph54%30.22 "Hg31 mi
10:00 PM58 °FOvercast.2 mph55%30.22 "Hg31 mi
Weather by CustomWeather, © 2014

See weather overviewHow to use our weather pages